Defuniak Springs, Defuniak Sp, FL

7:02 AM CDT on July 22, 2017 (GMT -0500)
Defuniak Springs, Defuniak Sp

Weather History for K54J - December, 2013

Change the Weather History Date:

Monday, December 16, 2013

  Actual Average (KCEW) Record (KCEW)
Temperature  
Mean Temperature 44 °F -  
Max Temperature 58 °F 66 °F 76 °F (1975)
Min Temperature 31 °F 41 °F 21 °F (1951)
Degree Days  
Heating Degree Days 20    
Moisture  
Dew Point 34 °F    
Average Humidity 74    
Maximum Humidity 98    
Minimum Humidity 37    
Precipitation  
Precipitation 0.00 in - - ()
Sea Level Pressure  
Sea Level Pressure 30.28 in    
Wind  
Wind Speed 6 mph (NNW)    
Max Wind Speed 10 mph    
Max Gust Speed -    
Visibility 10 miles    
Events      
Averages and records for this station are not official NWS values.
T = Trace of Precipitation, MM = Missing Value Source: NWS Daily Summary

Daily Weather History Graph

Daily Weather History Graph

Search for Another Location

Airport or City:

Trip Planner

Search our weather history database for the weather conditions in past years. The results will help you decide how hot, cold, wet, or windy it might be!

Date:

Astronomy

Dec. 16, 2013 Rise Set
Actual Time 6:35 AM CST 4:45 PM CST
Civil Twilight 6:08 AM CST 5:12 PM CST
Nautical Twilight 5:38 AM CST 5:42 PM CST
Astronomical Twilight 5:09 AM CST 6:11 PM CST
Moon 4:31 PM CST (12/16) 5:46 AM CST (12/16)
Length of Visible Light 11h 03m
Length of Day
10h 10m
Full, 100% of the Moon is Illuminated
Dec 16
Full
Dec 17
Full
Dec 25
Last Quarter
Jan 1
New
Jan 7
First Quarter

Hourly Weather History & Observations

Time (CST) Temp. Windchill Dew Point Humidity Pressure Visibility Wind Dir Wind Speed Gust Speed Precip Events Conditions
12:15 AM 33.8 °F 27.7 °F 32.0 °F 93% 30.26 in 10.0 mi North 6.9 mph - N/A   Clear
12:35 AM 33.8 °F 27.7 °F 32.0 °F 93% 30.26 in 10.0 mi North 6.9 mph - N/A   Clear
12:55 AM 33.6 °F 28.4 °F 32.2 °F 94% 30.26 in 10.0 mi North 5.8 mph - N/A   Clear
1:15 AM 33.1 °F 26.9 °F 32.0 °F 96% 30.26 in 10.0 mi North 6.9 mph - N/A   Clear
1:35 AM 32.9 °F 25.9 °F 32.0 °F 96% 30.25 in 10.0 mi North 8.1 mph - N/A   Clear
1:55 AM 32.5 °F 24.8 °F 31.8 °F 97% 30.26 in 10.0 mi North 9.2 mph - N/A   Clear
2:15 AM 32.9 °F 25.9 °F 31.8 °F 96% 30.26 in 10.0 mi NNW 8.1 mph - N/A   Clear
2:35 AM 32.9 °F 26.7 °F 31.8 °F 96% 30.27 in 10.0 mi North 6.9 mph - N/A   Clear
2:55 AM 32.4 °F 27.9 °F 31.5 °F 96% 30.26 in 10.0 mi North 4.6 mph - N/A   Clear
3:15 AM 32.0 °F 26.4 °F 31.1 °F 96% 30.27 in 10.0 mi North 5.8 mph - N/A   Clear
3:35 AM 32.0 °F 25.6 °F 31.1 °F 96% 30.27 in 10.0 mi North 6.9 mph - N/A   Clear
3:55 AM 31.8 °F 25.4 °F 31.1 °F 97% 30.26 in 7.0 mi North 6.9 mph - N/A   Clear
4:15 AM 32.0 °F 24.8 °F 31.1 °F 96% 30.27 in 10.0 mi North 8.1 mph - N/A   Clear
4:35 AM 31.8 °F 23.9 °F 31.1 °F 97% 30.26 in 10.0 mi North 9.2 mph - N/A   Clear
4:55 AM 31.5 °F 23.5 °F 30.7 °F 97% 30.26 in 7.0 mi North 9.2 mph - N/A   Clear
5:15 AM 31.6 °F 24.4 °F 30.9 °F 97% 30.27 in 7.0 mi North 8.1 mph - N/A   Clear
5:35 AM 31.6 °F 24.4 °F 30.9 °F 97% 30.28 in 7.0 mi North 8.1 mph - N/A   Clear
5:55 AM 31.6 °F 24.4 °F 30.9 °F 97% 30.27 in 10.0 mi North 8.1 mph - N/A   Clear
6:15 AM 31.5 °F 25.8 °F 30.7 °F 97% 30.28 in 10.0 mi North 5.8 mph - N/A   Clear
6:35 AM 31.1 °F 24.5 °F 30.4 °F 97% 30.28 in 7.0 mi North 6.9 mph - N/A   Clear
6:55 AM 31.1 °F 24.5 °F 30.6 °F 98% 30.28 in 7.0 mi North 6.9 mph - N/A   Clear
7:15 AM 32.0 °F 25.6 °F 30.9 °F 96% 30.28 in 7.0 mi North 6.9 mph - N/A   Clear
7:35 AM 32.9 °F 24.7 °F 31.6 °F 95% 30.29 in 7.0 mi North 10.4 mph - N/A   Clear
7:55 AM 34.3 °F 26.5 °F 31.8 °F 90% 30.29 in 10.0 mi North 10.4 mph - N/A   Clear
8:15 AM 36.0 °F 29.0 °F 32.0 °F 86% 30.30 in 10.0 mi North 9.2 mph - N/A   Clear
8:35 AM 37.8 °F 32.5 °F 32.5 °F 81% 30.30 in 10.0 mi North 6.9 mph - N/A   Clear
8:55 AM 40.3 °F 37.1 °F 32.9 °F 75% 30.31 in 10.0 mi North 4.6 mph - N/A   Clear
9:15 AM 41.9 °F 38.2 °F 32.5 °F 69% 30.32 in 10.0 mi North 5.8 mph - N/A   Clear
9:35 AM 43.7 °F 39.7 °F 32.9 °F 66% 30.33 in 10.0 mi North 6.9 mph - N/A   Clear
9:55 AM 45.5 °F 42.5 °F 32.5 °F 61% 30.32 in 10.0 mi North 5.8 mph - N/A   Clear
10:15 AM 48.0 °F - 33.1 °F 56% 30.32 in 10.0 mi NNW 8.1 mph - N/A   Clear
10:35 AM 49.6 °F - 32.9 °F 53% 30.32 in 10.0 mi North 6.9 mph - N/A   Clear
10:55 AM 50.7 °F - 32.5 °F 50% 30.31 in 10.0 mi North 6.9 mph - N/A   Clear
11:15 AM 52.5 °F - 32.5 °F 47% 30.30 in 10.0 mi North 5.8 mph - N/A   Clear
11:35 AM 53.4 °F - 32.5 °F 45% 30.29 in 10.0 mi NNW 4.6 mph - N/A   Clear
11:55 AM 55.2 °F - 32.7 °F 43% 30.28 in 10.0 mi NNE 6.9 mph - N/A   Clear
12:15 PM 55.9 °F - 31.8 °F 40% 30.27 in 10.0 mi NE 5.8 mph - N/A   Clear
12:35 PM 56.5 °F - 32.5 °F 40% 30.27 in 10.0 mi North 3.5 mph - N/A   Clear
12:55 PM 56.8 °F - 33.1 °F 41% 30.25 in 10.0 mi NNW 6.9 mph - N/A   Clear
1:15 PM 58.1 °F - 32.7 °F 38% 30.25 in 10.0 mi NNE 6.9 mph - N/A   Clear
1:35 PM 57.9 °F - 32.0 °F 37% 30.24 in 10.0 mi NE 4.6 mph - N/A   Clear
1:55 PM 58.5 °F - 32.0 °F 37% 30.24 in 10.0 mi NNE 6.9 mph - N/A   Clear
2:15 PM 58.6 °F - 32.4 °F 37% 30.24 in 10.0 mi North 5.8 mph - N/A   Clear
2:35 PM 58.3 °F - 32.0 °F 37% 30.24 in 10.0 mi NNW 8.1 mph - N/A   Clear
2:55 PM 58.3 °F - 33.3 °F 39% 30.24 in 10.0 mi NNW 6.9 mph - N/A   Clear
3:15 PM 58.3 °F - 33.8 °F 40% 30.24 in 10.0 mi NNW 6.9 mph - N/A   Clear
3:35 PM 57.9 °F - 33.4 °F 40% 30.24 in 10.0 mi North 4.6 mph - N/A   Clear
3:55 PM 57.4 °F - 33.4 °F 40% 30.24 in 10.0 mi North 5.8 mph - N/A   Clear
4:15 PM 56.5 °F - 34.9 °F 44% 30.24 in 10.0 mi NNW 3.5 mph - N/A   Clear
4:35 PM 55.0 °F - 36.1 °F 49% 30.25 in 10.0 mi Calm Calm - N/A   Clear
4:55 PM 50.4 °F - 39.6 °F 66% 30.26 in 10.0 mi Calm Calm - N/A   Clear
5:15 PM 48.7 °F - 39.6 °F 71% 30.26 in 10.0 mi Calm Calm - N/A   Clear
5:35 PM 48.0 °F - 39.2 °F 72% 30.26 in 10.0 mi Calm Calm - N/A   Clear
5:55 PM 46.9 °F - 39.0 °F 74% 30.27 in 10.0 mi Calm Calm - N/A   Clear
6:15 PM 46.9 °F - 39.2 °F 74% 30.27 in 10.0 mi Calm Calm - N/A   Clear
6:35 PM 45.0 °F - 39.6 °F 81% 30.27 in 10.0 mi Calm Calm - N/A   Clear
6:55 PM 44.8 °F - 38.7 °F 79% 30.27 in 10.0 mi Calm Calm - N/A   Clear
7:15 PM 45.1 °F 43.7 °F 38.3 °F 77% 30.27 in 10.0 mi NW 3.5 mph - N/A   Clear
7:35 PM 43.9 °F - 37.9 °F 80% 30.28 in 10.0 mi Calm Calm - N/A   Clear
7:55 PM 44.8 °F 43.3 °F 37.0 °F 74% 30.28 in 10.0 mi NW 3.5 mph - N/A   Clear
8:15 PM 45.1 °F 42.8 °F 36.7 °F 72% 30.30 in 10.0 mi NW 4.6 mph - N/A   Clear
8:35 PM 43.3 °F - 37.0 °F 78% 30.30 in 10.0 mi Calm Calm - N/A   Clear
8:55 PM 43.2 °F 41.5 °F 37.2 °F 80% 30.30 in 10.0 mi NW 3.5 mph - N/A   Clear
9:15 PM 43.2 °F 40.5 °F 37.4 °F 80% 30.30 in 10.0 mi NW 4.6 mph - N/A   Clear
9:35 PM 43.0 °F 39.5 °F 37.0 °F 80% 30.30 in 10.0 mi NW 5.8 mph - N/A   Clear
9:55 PM 43.2 °F - 36.5 °F 77% 30.31 in 10.0 mi Calm Calm - N/A   Clear
10:15 PM 42.3 °F 40.5 °F 36.0 °F 78% 30.31 in 10.0 mi NW 3.5 mph - N/A   Clear
10:35 PM 40.8 °F 38.8 °F 36.1 °F 83% 30.31 in 10.0 mi WNW 3.5 mph - N/A   Clear
10:55 PM 41.0 °F 39.0 °F 36.9 °F 85% 30.31 in 10.0 mi WNW 3.5 mph - N/A   Clear
11:15 PM 40.6 °F 38.6 °F 36.9 °F 86% 30.30 in 10.0 mi NW 3.5 mph - N/A   Clear
11:35 PM 40.8 °F - 36.5 °F 85% 30.30 in 10.0 mi Calm Calm - N/A   Clear
11:55 PM 41.9 °F 40.0 °F 36.0 °F 79% 30.29 in 10.0 mi NW 3.5 mph - N/A   Clear